Theta_e
314 313 311 312 316 317 319 320 320 321 319 319 319 318 319 320 321 322 321 322 323 326 327 326 330 334 343 350 348 349 349 351 352 357 354 349 351 351 350 350 348 346 341 334 334 334 334 332 330 328 328 329 332 335 337 337 338 338 337 335 334 333 332 332 333 333 332 329 323 321 323 322 322 328 330 329 329 329 328 326 325 323 328 335 335 331 324 319 316 314 313 313 314 314 314 314 315
312 311 310 314 319 318 320 319 319 320 317 316 317 318 319 321 322 321 320 322 326 329 329 329 333 339 346 349 347 348 350 350 350 352 351 349 350 350 350 351 349 347 341 334 334 334 334 332 330 327 326 327 330 334 336 337 338 338 337 336 335 334 332 333 334 333 330 325 321 321 325 326 326 328 330 333 333 333 333 332 333 331 329 329 329 328 323 321 318 315 314 313 313 313 313 313 316
312 312 312 317 320 319 322 319 318 319 317 315 315 318 319 320 321 321 324 326 329 330 330 333 338 341 346 349 347 349 350 350 350 351 349 349 350 348 349 350 348 346 341 335 334 335 334 332 329 326 324 325 329 334 335 337 337 338 338 336 334 333 333 334 334 329 324 321 319 321 325 327 327 328 328 331 333 332 333 334 335 336 333 327 325 325 323 325 323 316 315 314 313 314 313 314 316
315 316 318 322 320 319 324 324 321 318 317 317 316 319 320 320 321 322 329 332 331 330 329 336 344 346 346 349 348 349 349 348 350 351 350 350 349 349 349 349 347 344 339 334 335 335 334 332 328 324 323 323 328 332 335 336 337 337 337 336 335 334 334 335 330 322 318 318 319 321 325 327 328 328 328 330 332 332 332 333 333 336 334 327 325 326 323 326 326 318 315 315 313 314 313 314 316
318 319 323 325 321 319 324 327 325 321 318 318 317 321 322 320 322 323 327 329 331 330 329 337 347 349 348 349 348 349 349 349 350 350 350 349 349 349 349 348 347 341 336 334 335 335 334 331 327 324 322 323 326 330 334 336 336 337 337 336 334 334 335 331 323 317 317 318 319 321 325 327 327 327 327 327 329 331 331 331 330 331 329 324 324 325 321 323 324 319 315 315 314 314 314 315 318
319 320 322 324 322 317 321 324 324 322 321 321 320 321 323 320 321 322 322 324 328 330 328 339 347 349 350 349 349 349 348 349 351 351 351 349 349 349 349 348 345 338 335 335 336 335 334 332 327 324 322 323 325 329 332 334 335 336 336 336 334 334 332 323 317 317 318 320 321 323 326 327 326 324 323 322 323 325 326 326 324 323 321 320 322 321 320 320 320 318 316 315 314 314 316 317 319
320 320 320 320 319 317 320 322 322 322 321 323 322 323 323 321 322 321 322 320 323 325 327 341 345 347 349 349 349 349 348 349 351 351 351 349 349 349 348 346 340 335 335 335 335 335 334 333 330 325 323 323 324 328 331 333 335 335 336 335 334 334 325 317 318 321 323 325 325 327 329 329 327 324 321 321 322 322 322 323 322 322 320 319 319 318 319 320 318 317 317 316 314 313 316 318 319
318 318 318 317 318 318 321 321 321 322 322 322 322 323 322 320 321 320 322 320 322 323 327 340 342 348 349 348 350 350 349 349 349 350 350 350 349 348 346 342 336 334 336 335 335 335 334 334 331 328 325 323 324 328 330 333 334 335 335 334 334 329 319 317 321 324 326 327 329 332 332 332 331 328 326 326 325 326 326 324 323 323 323 322 320 318 317 318 317 316 318 317 315 314 315 318 319
316 316 317 317 317 317 319 320 320 321 322 322 321 321 321 320 320 320 322 319 322 322 325 335 336 348 350 348 350 349 350 350 350 351 350 349 349 347 345 342 338 336 335 335 335 335 335 334 333 332 328 325 325 325 328 331 332 333 334 334 331 323 318 322 325 327 328 329 332 334 333 333 333 334 333 332 331 332 331 329 328 328 327 327 325 322 319 317 317 316 318 318 316 314 315 318 319
315 316 317 317 317 315 315 317 318 319 320 320 320 320 321 320 320 321 321 320 321 320 328 336 338 347 348 348 349 350 350 350 350 350 350 349 347 345 343 343 342 341 338 335 336 335 335 335 334 334 330 328 326 324 325 326 327 329 330 330 325 320 322 326 328 329 330 331 333 333 333 333 334 335 336 336 335 335 335 333 332 331 329 328 328 326 324 321 320 319 317 317 317 315 315 318 319
316 315 316 317 317 316 314 315 316 317 319 319 319 319 321 320 321 320 320 321 320 321 328 339 344 347 348 348 349 349 350 350 350 351 350 348 347 344 343 344 344 344 340 335 335 336 335 335 335 334 332 330 327 325 324 323 323 323 324 324 323 323 326 328 329 331 332 333 333 332 332 333 334 335 335 336 336 335 335 334 333 331 328 327 328 329 329 327 323 321 318 316 317 317 315 317 320
316 316 316 317 318 318 317 316 315 318 319 319 319 319 321 320 321 320 320 320 320 321 322 338 346 347 349 349 348 349 350 350 351 351 349 348 347 345 344 345 345 345 341 336 335 336 335 336 335 335 333 330 328 327 326 324 322 322 324 325 326 327 329 330 331 332 333 333 332 331 331 332 333 334 334 335 335 335 334 333 331 328 326 326 328 328 329 327 323 323 321 316 315 317 317 317 319
315 316 316 317 319 319 318 317 317 320 319 319 320 319 320 319 321 320 320 320 319 321 319 337 344 345 350 349 348 349 350 351 351 349 348 347 347 346 346 346 346 346 342 337 336 335 336 336 336 335 333 331 329 328 327 325 324 325 326 327 328 330 331 332 332 332 332 332 330 330 331 332 332 333 333 333 332 333 332 331 329 326 327 327 327 327 326 323 321 322 322 319 315 314 317 318 318
314 315 315 318 319 317 316 315 316 317 317 319 320 320 321 319 321 321 322 321 320 326 333 342 341 344 350 348 349 349 349 350 350 347 348 348 346 346 347 347 346 345 342 338 335 336 336 336 336 335 333 332 331 329 327 326 326 327 328 329 329 331 332 332 333 332 331 330 329 330 330 330 331 331 331 331 331 331 331 329 327 327 328 327 326 324 323 321 320 319 320 321 319 314 314 317 317
315 315 316 317 317 317 316 316 316 315 317 320 319 320 321 319 321 322 324 322 324 334 339 341 339 346 350 349 349 349 349 349 348 347 348 348 347 347 347 347 347 346 341 336 335 336 336 336 336 335 334 333 332 330 328 327 327 328 328 329 330 331 332 333 332 331 329 328 327 327 328 327 328 328 328 329 330 330 329 328 327 327 327 326 324 323 323 323 322 321 319 319 321 317 313 316 316
315 315 317 317 317 316 317 318 317 316 317 320 320 320 321 320 321 323 325 321 325 336 338 338 337 343 347 348 349 349 349 348 347 347 347 347 348 347 346 346 346 343 338 335 335 336 336 336 336 336 334 334 333 330 328 328 328 329 329 330 331 332 332 332 331 329 328 326 326 327 326 325 325 326 327 327 329 329 328 327 326 326 326 326 324 324 324 324 324 324 321 318 320 320 315 315 316
314 315 316 317 316 316 316 318 318 317 318 319 319 319 320 320 322 323 323 322 332 338 337 338 339 340 344 347 349 349 349 348 347 347 346 347 348 347 345 346 345 341 336 335 336 336 336 336 336 336 335 335 334 332 330 329 329 330 330 331 332 332 332 331 329 327 327 325 326 327 326 326 326 326 327 327 328 328 326 327 326 325 324 324 323 322 322 323 324 323 323 320 319 320 317 315 316
315 316 316 315 316 315 316 317 318 318 319 320 319 320 320 320 323 325 323 325 336 340 337 338 340 341 345 348 349 349 349 347 346 346 346 347 347 347 346 345 344 341 338 337 337 337 337 335 336 336 336 336 335 333 332 331 331 331 331 332 333 332 332 330 327 325 325 326 326 327 326 326 327 327 327 327 327 327 327 327 325 324 323 323 322 321 321 321 322 321 322 322 319 319 319 317 319
315 317 316 315 315 315 317 317 318 318 319 320 319 320 321 320 323 326 326 325 332 339 341 341 343 346 349 349 349 349 347 346 345 346 347 347 347 347 346 344 344 343 339 338 338 338 337 336 336 336 336 336 335 335 333 332 332 332 332 333 333 332 331 329 325 324 325 325 327 326 325 326 326 325 325 325 326 327 328 327 325 324 323 322 321 321 320 320 320 320 320 322 319 318 319 319 320
315 316 316 316 316 316 316 317 319 318 318 319 319 320 319 319 320 323 326 328 331 338 343 344 347 348 349 349 349 348 346 344 345 346 347 346 346 346 345 345 344 343 341 340 341 339 339 337 336 336 336 336 336 335 334 333 333 333 333 333 333 331 329 327 325 325 326 326 327 325 324 324 324 322 322 324 326 327 328 326 324 325 324 323 322 321 322 321 320 319 319 322 322 321 322 322 323
315 315 315 315 316 316 317 318 318 318 319 319 319 320 318 319 319 320 325 332 336 339 343 345 347 349 350 349 349 348 345 344 344 345 346 346 346 345 345 345 344 343 342 342 341 339 339 338 336 336 335 335 336 336 335 334 333 334 333 333 332 329 328 326 325 327 328 327 325 324 323 323 324 323 323 326 327 328 329 327 325 326 327 325 324 325 327 324 322 323 321 323 328 328 328 329 329
315 315 315 316 316 316 317 318 317 318 318 318 318 319 318 318 319 321 320 329 339 339 340 345 347 348 349 349 349 348 346 345 344 344 344 344 345 345 345 345 344 343 343 342 341 339 339 337 336 335 335 336 336 336 335 334 334 334 332 331 329 327 327 326 326 328 328 327 325 325 324 323 325 325 326 327 327 328 329 327 327 328 329 329 326 326 329 328 327 330 326 323 328 330 330 330 330
314 314 315 317 317 317 317 318 318 318 318 317 317 318 318 318 318 319 320 328 337 337 337 343 347 347 348 348 348 347 346 345 344 345 343 343 344 345 345 344 344 344 343 342 341 339 338 337 336 335 335 335 336 335 335 334 334 332 331 331 328 326 327 327 326 327 327 327 326 326 325 324 325 326 327 328 328 328 328 327 328 328 329 330 327 326 328 328 329 331 329 325 326 329 329 329 329
315 314 315 317 317 317 318 318 318 318 318 317 318 318 317 317 318 319 327 332 334 333 336 343 346 346 347 347 345 345 346 345 344 346 344 343 343 343 344 343 343 342 342 341 339 337 336 336 336 335 335 335 336 335 334 333 332 330 329 329 326 325 326 328 327 327 329 329 326 325 325 324 324 326 327 328 327 326 326 327 327 328 328 328 326 326 327 327 327 329 330 327 326 328 329 328 329
315 315 315 317 317 318 318 318 318 318 318 318 317 318 316 318 318 318 328 334 333 334 335 341 345 344 345 344 341 344 346 345 345 346 345 342 342 343 343 342 342 341 341 340 338 336 335 335 335 335 336 335 335 335 334 333 331 329 328 327 326 325 325 327 328 328 330 329 327 326 326 325 325 326 327 327 326 325 325 327 327 326 326 327 326 326 327 327 327 328 329 328 326 328 328 328 328
315 315 315 316 317 318 318 317 318 317 318 318 317 317 317 318 318 318 328 333 333 334 337 339 342 342 344 341 338 342 343 345 346 346 345 341 342 343 341 339 341 342 340 339 337 334 335 335 335 336 336 334 335 335 334 332 330 328 327 327 327 327 326 327 328 329 329 328 329 327 326 326 325 326 325 325 326 325 325 327 327 326 326 328 327 326 327 327 327 327 328 327 327 328 328 328 328
315 315 316 316 317 317 317 317 317 318 317 318 317 317 317 317 317 317 326 332 332 334 338 340 340 341 343 340 338 338 341 345 346 346 344 342 343 342 340 339 341 343 340 338 337 335 335 335 335 336 335 335 335 335 333 331 330 328 328 328 327 327 327 326 328 329 328 328 329 328 326 326 325 325 324 325 326 325 325 326 327 328 328 329 329 328 327 327 327 326 327 327 327 329 328 328 328
315 315 314 315 316 316 317 317 317 318 318 318 318 317 316 317 317 316 321 330 333 334 337 340 341 340 341 339 337 335 339 345 346 345 344 343 343 342 341 340 341 342 340 338 337 336 335 334 334 335 335 335 335 333 332 330 330 329 328 329 328 327 327 327 328 330 329 329 329 328 327 326 325 324 324 325 326 326 324 325 326 327 328 328 329 329 327 326 326 326 327 327 327 329 328 327 328
314 315 315 315 315 316 317 317 317 318 318 318 318 316 316 316 317 316 319 325 331 334 335 339 341 339 340 341 338 336 340 343 344 345 344 342 343 342 340 340 342 340 339 338 336 334 334 334 334 335 335 334 334 331 329 329 329 329 328 329 329 329 329 328 329 330 328 328 328 327 327 326 324 325 326 326 327 327 325 325 325 326 326 326 327 327 327 326 326 326 326 327 328 329 328 327 327
315 315 315 314 315 315 317 317 318 317 317 319 317 314 315 316 316 317 318 319 327 333 334 338 341 342 342 342 340 340 342 343 344 344 343 342 343 343 339 340 342 339 337 337 335 334 334 335 334 334 334 334 332 330 329 329 330 330 329 330 330 329 330 329 329 329 328 328 326 325 326 325 326 327 328 328 327 326 326 326 326 326 325 326 326 326 327 327 327 327 326 326 328 329 328 326 326
315 315 314 315 314 314 317 317 317 316 316 319 316 313 315 317 316 317 318 317 322 330 333 337 341 343 342 342 342 342 343 343 344 343 343 343 344 342 341 341 342 339 337 336 336 335 334 335 334 333 334 334 333 330 329 330 331 331 329 330 330 329 329 328 328 328 328 328 328 328 328 329 329 328 329 329 327 326 326 326 326 325 326 327 327 326 327 327 326 326 325 326 328 328 327 326 326
315 314 314 315 314 314 316 316 317 316 316 318 316 315 316 317 316 317 318 317 319 326 331 335 338 341 341 342 343 343 343 344 344 343 343 344 343 343 342 342 341 340 337 336 336 335 334 335 334 333 335 334 333 330 329 330 331 330 329 329 328 328 327 328 328 328 328 330 330 330 330 329 328 327 327 329 328 327 326 327 326 326 326 327 328 327 327 326 324 325 326 326 328 328 328 327 326
317 315 315 317 315 314 314 316 317 316 316 317 316 315 316 317 317 317 317 318 317 323 329 334 335 337 340 342 344 345 344 345 345 344 344 344 343 343 342 342 341 340 338 336 336 335 334 334 333 334 335 333 332 330 328 329 330 329 328 328 327 327 328 329 328 328 329 330 329 328 327 326 325 325 326 328 328 327 326 326 327 327 326 327 327 327 327 326 324 325 327 327 327 328 328 327 326
318 317 316 317 315 314 314 314 316 316 316 317 316 316 316 318 317 316 317 318 319 322 328 334 334 336 340 342 344 345 344 345 345 345 345 343 343 343 342 342 341 339 338 337 336 335 334 334 334 334 334 333 331 330 328 327 328 326 325 325 326 328 328 328 327 326 327 328 327 327 326 325 324 324 326 327 326 326 326 326 327 327 326 326 327 327 327 325 323 324 326 326 327 327 327 326 326
318 318 317 316 315 314 314 314 315 315 316 316 316 315 315 318 317 316 316 317 319 320 325 331 334 336 338 340 343 343 343 343 345 345 345 344 343 343 341 340 340 339 338 338 336 335 334 335 334 333 332 332 330 329 328 327 328 324 323 324 326 328 328 327 325 324 326 326 326 328 327 325 326 326 326 327 326 326 327 327 328 328 327 325 326 326 325 323 323 324 324 325 326 327 326 325 324
316 317 317 315 314 314 313 314 316 315 315 315 317 315 314 317 317 317 317 316 318 318 323 331 335 337 338 339 342 342 342 342 343 344 345 344 343 342 341 340 340 338 337 337 336 335 335 335 334 332 331 331 330 328 326 327 328 326 324 326 327 327 327 327 327 327 328 327 326 327 326 325 326 326 326 327 327 327 328 328 328 327 326 325 325 325 324 323 324 324 323 324 324 325 325 324 324
316 315 315 314 314 314 315 316 316 315 315 315 316 316 315 316 316 318 316 316 318 318 323 332 336 337 339 341 343 342 341 339 342 344 345 344 343 342 340 340 339 338 338 337 336 336 335 334 334 332 331 330 328 325 323 325 326 325 325 325 324 323 325 328 329 330 330 328 326 324 325 325 326 326 327 327 327 327 328 328 327 326 325 325 325 326 325 324 324 323 323 323 323 324 323 324 326
318 317 315 314 314 315 317 316 317 317 316 316 316 317 316 317 317 318 317 317 320 319 323 332 335 336 337 341 342 342 340 340 342 344 345 344 342 341 340 339 338 337 337 336 336 336 334 332 333 332 332 330 327 324 322 323 324 324 323 321 318 318 323 328 329 330 328 325 325 323 322 323 324 327 328 328 327 327 327 328 328 327 326 325 325 325 325 324 324 323 323 323 323 323 323 324 326
319 318 316 316 315 316 318 318 318 317 317 316 316 317 318 319 318 319 320 319 321 320 325 332 335 334 335 338 339 339 340 342 342 342 344 343 340 339 339 337 337 336 335 334 334 335 333 332 332 332 332 330 326 325 323 323 323 321 319 316 315 319 324 326 326 327 326 322 322 322 321 322 323 325 326 326 327 327 327 327 327 328 327 327 326 326 325 325 325 324 324 324 323 324 324 324 325
319 319 317 316 316 316 316 319 320 320 322 321 317 319 323 323 318 320 320 319 321 321 324 332 334 334 334 335 336 337 339 341 342 342 342 338 334 334 335 336 336 335 334 333 332 332 333 333 332 330 331 328 325 325 323 322 321 317 316 317 319 321 323 322 320 321 321 319 320 321 322 324 324 323 324 325 326 326 327 327 327 327 328 327 327 327 326 326 326 325 325 325 324 324 324 324 324
320 320 318 317 317 316 317 319 322 326 328 329 325 324 328 326 318 320 322 319 322 322 321 327 332 335 335 335 336 337 337 339 341 341 336 333 332 333 333 335 335 333 332 332 330 329 331 332 332 331 330 327 325 324 323 321 318 316 318 321 322 322 322 321 316 316 318 320 321 321 323 326 325 322 323 325 324 323 324 326 327 327 327 328 327 327 327 327 326 325 325 325 325 324 324 324 325
322 323 321 319 318 318 319 319 321 322 324 328 325 320 326 329 319 321 324 319 321 322 320 326 332 338 337 337 338 337 338 339 340 338 334 333 334 334 333 334 334 331 331 332 330 329 330 331 332 330 329 327 325 325 324 323 320 319 320 320 320 322 325 322 315 317 322 323 321 321 324 326 326 325 324 325 322 317 318 320 322 323 324 326 327 326 326 326 326 325 325 326 325 325 325 326 326
320 323 322 320 319 318 319 319 317 318 321 326 324 318 324 329 323 322 323 319 321 323 323 330 333 336 336 336 336 337 338 338 337 337 335 335 334 333 333 333 333 332 332 332 330 330 332 332 330 327 326 326 325 325 325 325 324 322 322 320 321 324 323 320 319 322 325 324 320 321 324 324 325 326 326 324 320 315 315 316 319 322 323 324 325 326 326 327 326 327 327 327 327 326 326 327 327
319 322 320 318 317 317 319 318 316 318 322 323 322 319 320 323 326 326 322 319 322 323 325 332 334 334 334 335 334 336 337 336 336 335 335 335 333 333 333 333 333 331 331 331 330 331 331 330 327 324 323 324 325 325 326 324 322 321 319 319 322 323 321 319 323 325 325 325 321 319 319 318 320 322 322 322 321 318 319 320 322 323 324 325 324 324 326 327 327 328 328 327 326 327 326 327 327
320 320 318 317 315 316 318 316 317 320 320 318 320 321 319 320 326 327 323 320 321 324 326 331 335 334 333 335 335 336 336 335 335 332 332 333 332 333 333 332 330 328 327 328 328 329 329 327 325 324 322 323 324 326 326 322 318 317 316 318 320 321 323 323 324 325 325 322 316 314 315 315 320 322 321 324 324 322 321 322 325 325 324 325 325 323 324 326 327 328 327 325 324 325 326 326 327
320 318 318 317 315 317 317 316 319 320 320 320 322 321 318 321 326 323 320 321 321 323 326 331 335 334 334 335 335 336 335 333 334 332 332 332 331 332 332 331 327 325 325 325 325 327 328 327 325 323 322 323 323 325 325 320 317 317 318 322 323 323 326 325 323 323 320 316 314 316 319 321 323 324 323 325 324 323 321 319 324 326 324 325 325 324 325 325 326 326 326 324 323 324 324 325 326
318 317 317 316 316 318 317 318 319 318 321 324 323 322 319 322 329 325 321 324 323 326 332 333 333 333 333 334 335 335 334 333 333 332 332 331 329 329 329 329 327 326 325 324 324 327 329 327 324 323 322 323 323 324 324 319 317 319 320 323 324 323 323 321 317 315 312 313 316 320 322 322 323 322 322 324 324 324 323 320 322 325 325 324 323 324 324 325 326 325 324 325 324 324 324 324 326
316 317 316 316 318 319 316 316 317 317 322 324 320 322 319 320 330 332 327 329 327 328 333 334 332 331 332 332 333 334 334 333 333 332 331 329 328 327 327 329 329 327 327 325 325 327 329 328 325 323 323 323 324 323 321 318 318 321 321 322 322 320 318 316 312 309 309 313 316 319 320 320 322 321 320 322 322 321 322 322 321 322 323 323 321 321 321 322 325 324 323 324 324 323 324 324 325
316 317 315 315 318 320 316 316 317 319 324 324 319 319 321 323 329 330 329 329 328 328 331 333 331 331 332 332 333 333 333 333 332 332 332 330 329 328 328 331 330 328 327 326 324 326 329 329 327 325 323 324 324 322 320 320 321 322 320 320 321 318 316 314 311 309 311 314 317 319 320 321 324 322 319 320 319 318 321 323 322 321 321 321 321 322 321 319 321 322 322 323 323 323 323 324 325
316 316 316 317 318 318 318 318 317 318 320 321 319 318 323 328 327 327 328 327 326 328 329 331 331 332 334 333 333 333 332 332 331 331 332 331 330 328 329 332 331 330 330 327 325 325 326 327 326 324 323 323 323 321 320 321 321 320 319 320 321 318 315 314 311 310 313 316 319 321 321 322 323 322 322 321 318 320 323 323 322 321 320 321 322 323 321 318 319 320 322 323 323 323 323 323 324
317 317 318 320 320 318 318 319 318 320 323 324 321 319 322 329 329 326 327 325 325 328 330 331 331 332 334 333 333 333 331 331 331 331 331 331 330 329 331 332 331 331 331 328 325 325 325 325 324 323 323 322 322 321 320 320 321 320 319 321 322 320 316 314 312 313 317 319 322 323 323 322 322 322 324 321 317 321 325 323 320 319 320 322 323 323 322 320 320 321 322 322 323 323 324 324 324
321 319 315 319 324 320 318 322 324 325 327 326 323 323 326 331 331 326 325 325 325 327 329 329 330 332 332 332 332 331 331 331 331 331 331 331 331 330 331 332 331 331 330 328 327 327 326 326 324 323 322 321 321 320 320 320 321 321 322 323 324 321 317 315 315 318 321 321 322 323 323 322 322 322 322 320 316 319 322 321 320 318 319 321 322 322 323 321 320 321 322 322 323 323 324 324 323
327 321 314 319 326 324 322 327 329 326 324 323 325 328 327 328 330 326 324 326 326 326 328 328 329 330 330 330 330 330 331 332 332 332 331 331 332 331 330 330 331 331 329 328 327 327 327 326 324 323 323 322 321 320 320 321 322 322 324 325 326 323 319 317 317 321 322 321 321 323 322 321 321 321 321 318 313 315 319 318 316 315 316 320 321 321 321 320 319 321 321 322 322 323 323 322 320
324 318 317 319 321 324 327 327 326 323 321 322 327 329 326 327 331 329 326 327 328 328 327 328 329 331 330 328 329 329 330 332 332 331 332 332 333 333 331 329 330 330 330 328 327 326 326 325 325 324 324 323 322 322 321 321 322 325 326 327 326 324 322 319 319 322 322 320 320 321 320 319 319 319 317 312 309 311 314 312 309 309 313 318 321 320 319 318 318 318 319 319 320 321 322 320 317
319 317 320 323 326 330 329 325 324 324 322 321 324 329 328 328 330 332 331 329 330 329 327 328 330 331 332 331 329 330 330 331 330 330 331 331 333 333 332 329 328 329 329 327 326 326 325 325 325 324 323 323 323 323 321 321 323 327 327 327 327 326 324 322 321 321 320 318 318 317 317 316 314 313 309 307 306 307 308 307 306 306 309 314 318 319 318 317 317 317 317 317 316 317 318 317 315
316 318 318 323 332 334 330 326 323 324 328 325 324 329 333 329 326 331 333 329 329 328 327 328 328 328 331 331 329 329 329 329 329 328 329 329 330 332 332 331 329 329 329 328 327 326 325 325 325 323 323 323 325 323 321 322 325 327 328 327 327 328 326 325 323 320 317 317 316 315 314 312 310 307 305 305 306 306 305 305 305 305 306 309 314 317 317 315 315 315 314 313 312 312 313 314 314
316 318 318 319 324 325 325 326 321 321 330 331 327 330 334 330 326 328 331 329 328 328 327 328 327 326 328 330 329 329 328 329 328 328 327 327 328 330 331 330 329 328 328 328 328 327 326 326 325 324 324 324 325 323 321 322 325 327 327 327 328 328 325 325 324 320 316 317 316 314 311 309 308 306 305 306 307 308 308 307 307 306 305 306 310 313 313 313 311 310 309 309 309 309 310 313 313
316 318 320 321 325 325 324 326 325 323 328 330 330 332 332 330 328 327 329 329 328 326 327 327 326 325 326 328 329 329 329 330 329 328 327 328 329 329 329 329 327 326 327 326 326 328 328 328 327 327 327 326 325 323 321 322 324 326 327 327 328 327 325 325 324 320 317 318 317 314 309 308 308 306 306 308 311 312 312 311 310 309 307 306 307 309 311 311 310 310 310 311 311 310 311 313 313
Wind_Speed
8 7 8 10 8 4 1 2 1 2 2 2 4 4 8 10 10 10 14 16 7 6 7 18 20 24 18 14 17 19 18 8 3 4 8 13 17 20 19 18 14 16 21 23 24 22 20 18 18 19 20 20 20 19 19 19 18 18 16 15 15 14 13 12 11 10 10 10 10 10 12 13 15 16 16 15 15 14 13 12 10 10 13 13 11 8 7 8 9 10 10 10 11 15 19 20 22
9 8 10 8 4 2 2 3 2 1 3 4 5 7 9 6 8 13 16 14 3 2 13 24 27 33 30 25 21 20 20 17 17 19 22 24 21 18 17 16 12 15 21 23 23 22 21 19 19 19 19 20 19 19 18 18 18 17 16 15 14 13 13 11 11 10 9 10 10 11 12 14 15 15 15 15 14 13 12 12 10 9 9 10 9 7 6 6 7 9 9 9 10 15 18 20 22
12 12 13 5 0 1 5 2 2 2 4 4 7 8 8 6 10 13 8 4 4 11 15 23 22 22 25 24 20 15 11 15 23 27 26 22 21 20 16 12 11 14 21 23 23 22 21 20 19 19 19 19 19 18 18 18 17 16 15 14 14 13 12 11 10 9 9 10 11 11 12 14 14 14 14 14 14 13 12 12 10 8 7 6 6 6 6 7 7 7 8 8 10 14 17 19 21
11 12 12 5 2 2 3 1 3 2 3 5 6 6 7 9 11 9 1 5 8 12 13 18 15 16 24 18 15 16 10 14 19 23 22 17 19 20 14 12 11 15 22 24 23 21 21 20 19 19 18 19 19 18 17 17 17 16 15 14 14 13 12 11 10 9 10 11 12 12 12 13 13 13 13 13 13 13 12 12 11 9 6 5 6 7 7 8 8 7 8 8 10 14 16 18 20
10 11 9 4 3 2 1 1 3 3 6 5 4 6 6 7 2 1 2 6 6 8 13 14 8 14 24 16 11 9 9 16 15 18 21 18 18 17 14 11 11 18 25 24 22 21 20 20 19 19 19 18 18 18 17 16 16 15 15 14 14 13 12 10 10 10 11 11 12 12 12 13 13 12 12 12 12 12 11 11 10 9 6 5 7 7 7 7 7 8 8 8 10 14 16 17 19
9 9 5 5 7 4 3 2 3 4 8 6 5 10 8 7 2 6 3 5 6 6 11 14 14 15 16 16 19 10 9 15 14 19 21 20 17 14 12 9 13 24 26 24 22 21 20 20 19 19 19 18 18 18 17 16 16 15 14 14 14 13 11 11 11 11 11 11 13 13 13 12 12 12 12 12 11 11 10 9 8 7 6 6 7 7 7 7 7 8 9 9 9 13 15 17 19
9 4 4 5 7 4 2 3 5 6 8 9 9 12 11 10 4 5 2 4 6 5 8 17 26 20 9 10 17 14 10 14 18 19 18 19 17 13 10 10 20 27 25 23 22 21 21 20 19 19 18 18 18 18 17 16 15 15 14 14 14 12 11 12 13 12 12 12 13 13 13 12 11 12 12 12 11 10 10 9 8 7 8 7 7 7 6 6 6 7 8 9 9 11 14 16 18
8 3 4 2 2 2 3 4 6 7 8 11 11 13 11 8 7 5 2 2 2 3 9 22 27 14 8 13 12 14 14 13 16 17 17 19 16 12 10 15 25 26 23 23 22 21 21 20 20 19 18 19 18 18 17 17 16 16 15 15 14 12 12 13 13 13 12 12 12 13 13 12 11 11 11 11 11 10 10 9 10 10 10 8 7 6 5 4 4 6 8 9 9 10 13 15 17
7 5 4 1 2 2 4 4 6 9 11 12 14 16 11 4 4 5 3 3 4 2 6 18 20 10 11 21 16 17 19 14 16 18 18 18 16 14 15 19 22 22 22 22 22 22 21 21 19 19 18 18 18 18 17 17 17 17 16 16 14 13 14 14 14 14 13 12 12 12 11 11 11 11 10 10 10 10 9 8 9 9 9 8 7 6 5 5 4 5 7 9 9 10 11 14 16
6 8 5 1 3 4 4 5 7 9 12 13 14 14 4 5 5 5 3 4 2 1 7 16 16 17 16 17 15 17 21 17 18 20 20 21 18 18 22 22 18 18 21 22 22 21 22 21 19 18 18 18 18 18 18 18 18 18 17 16 15 14 15 15 14 14 13 12 12 11 10 10 11 11 10 10 10 10 8 8 8 9 8 7 7 5 5 6 5 4 5 8 9 9 10 11 14
6 8 7 2 2 4 5 6 7 9 12 11 15 17 9 12 7 4 1 3 5 5 12 19 14 22 18 11 15 17 20 17 19 24 24 23 21 23 26 20 16 17 20 23 22 21 22 21 19 18 17 17 18 18 18 18 18 18 18 17 16 15 15 15 14 13 12 12 11 11 11 10 10 10 10 9 9 10 9 7 7 7 7 6 7 6 6 6 6 4 4 6 8 9 9 10 12
6 4 5 2 3 5 5 6 8 9 10 10 13 12 14 15 7 5 2 2 1 6 2 14 16 22 13 6 15 18 20 19 21 24 23 23 21 23 23 18 15 16 19 22 22 21 21 21 20 19 18 18 18 18 17 18 19 19 18 17 17 16 15 14 14 13 12 12 11 11 11 11 10 10 10 9 9 9 9 7 5 5 5 5 6 6 5 5 5 4 4 4 7 9 9 10 11
9 4 3 3 4 4 6 7 8 8 8 8 8 6 16 13 6 5 4 0 2 5 3 16 27 22 10 8 18 20 20 20 22 21 20 23 20 20 19 17 16 16 19 21 20 20 21 22 21 20 19 18 19 18 18 18 19 19 18 18 17 16 15 14 13 12 11 11 11 11 12 12 11 11 10 9 9 8 7 6 5 4 5 5 5 4 3 3 4 2 2 3 4 8 10 10 10
13 9 4 3 4 4 6 6 8 6 5 6 2 8 13 7 3 2 3 2 1 4 10 24 30 19 13 13 15 21 22 19 20 19 20 22 20 19 18 17 17 16 18 19 21 21 22 22 20 20 20 20 19 19 19 19 19 19 18 17 17 16 14 13 12 11 10 11 11 11 12 12 11 11 10 9 8 8 6 5 5 5 5 4 4 4 3 3 3 2 2 2 3 5 8 10 10
16 14 5 3 5 5 6 6 8 6 5 5 1 5 9 6 2 4 7 4 5 17 21 20 17 10 14 13 13 23 24 20 20 20 21 20 18 19 19 18 17 15 17 20 21 22 22 21 20 21 21 20 19 19 20 19 19 18 17 17 16 15 14 13 12 11 11 11 11 11 11 11 10 9 9 8 7 6 5 4 5 5 4 4 4 4 4 3 3 3 2 2 2 2 5 8 10
18 14 3 3 6 5 6 6 7 5 6 6 1 2 6 3 3 7 6 3 6 18 17 10 7 9 16 17 21 28 26 22 21 21 21 19 19 20 20 19 17 17 21 23 22 21 20 20 21 21 21 20 19 20 20 19 19 18 17 16 15 15 14 13 12 12 12 11 11 12 11 11 10 9 8 7 6 5 4 4 4 4 3 4 4 4 4 4 3 3 3 2 2 2 3 5 9
19 12 3 4 6 6 7 6 6 4 3 4 6 8 4 2 4 9 7 3 10 23 20 14 13 17 20 23 30 31 28 25 22 21 20 22 23 23 23 20 20 21 23 23 21 20 19 20 21 21 20 20 20 21 20 20 19 18 17 16 15 14 13 13 12 12 12 12 12 12 10 10 9 8 7 6 5 4 3 4 3 2 3 3 3 4 4 4 4 3 3 3 2 3 4 5 8
14 6 4 5 6 7 8 8 8 4 2 3 6 10 7 4 6 6 6 6 20 28 22 21 21 21 26 31 34 30 27 25 22 22 23 25 25 25 25 22 21 21 23 22 20 19 19 20 20 19 18 18 20 20 21 21 19 18 17 16 14 13 13 12 11 13 13 13 12 11 10 8 7 7 6 4 2 2 2 2 2 2 3 3 3 3 3 3 4 4 4 4 3 4 6 6 8
9 3 4 6 6 9 12 12 12 10 4 3 3 6 3 5 6 6 2 3 16 19 17 24 27 27 32 34 32 28 24 22 21 23 24 24 24 25 25 23 21 21 23 22 20 18 18 20 19 19 17 17 19 19 20 20 19 19 17 16 14 13 13 12 12 14 13 13 12 11 10 8 7 6 4 1 1 2 2 3 3 3 3 3 3 3 3 3 3 4 4 4 4 5 6 7 8
10 8 4 6 8 11 18 18 19 19 7 4 4 5 2 5 3 3 3 3 11 11 10 17 24 29 32 31 30 27 22 20 21 23 23 21 23 24 24 24 22 22 23 20 18 17 18 19 18 18 17 17 19 18 19 19 20 19 18 17 16 14 12 12 13 13 12 13 12 10 10 8 7 7 6 5 4 4 4 4 4 3 2 2 3 4 3 3 3 4 5 7 8 9 8 8 7
8 9 5 8 10 10 20 22 23 25 12 3 3 3 0 8 5 1 6 5 7 9 13 18 26 31 31 29 29 25 21 21 22 22 21 20 21 24 24 23 22 22 21 19 17 16 17 18 17 19 17 17 18 18 18 20 20 18 18 18 16 14 13 13 13 12 12 13 12 10 10 9 8 10 9 7 6 6 5 4 4 3 2 3 3 4 4 4 3 4 5 9 12 12 10 9 6
7 8 10 15 14 12 21 22 21 21 15 8 6 5 7 11 7 7 4 1 6 14 18 21 29 32 30 30 27 24 23 23 22 21 20 20 21 24 23 22 21 20 19 18 16 15 16 16 16 19 18 17 19 18 17 20 20 17 17 16 14 13 12 14 14 13 13 12 12 10 10 10 10 10 9 8 8 6 5 5 4 2 2 3 3 3 4 4 4 4 5 9 11 11 10 8 5
8 7 12 19 19 15 21 23 21 15 12 9 8 12 14 11 6 11 7 7 17 23 23 23 26 26 27 27 24 22 23 23 22 21 20 19 21 24 23 22 21 20 18 17 16 15 16 16 17 19 18 18 19 18 17 19 19 16 14 14 14 13 13 13 14 14 13 12 11 8 9 10 10 10 9 8 7 5 4 5 4 3 3 4 3 2 3 3 4 3 4 7 9 9 10 8 6
11 7 10 16 20 18 21 25 22 15 6 6 7 13 15 5 4 9 7 20 23 21 22 25 24 23 24 22 18 20 22 23 21 21 19 18 21 22 22 22 22 20 19 17 17 18 18 17 18 19 17 18 20 19 18 19 18 15 14 15 14 14 13 12 13 14 13 13 11 9 8 9 9 8 8 7 6 5 5 6 6 5 5 5 4 2 2 2 2 3 3 4 7 10 9 7 6
11 9 12 15 18 21 23 26 23 13 6 2 2 7 13 10 5 7 10 25 23 22 24 25 25 22 23 18 14 18 20 20 20 20 19 19 21 19 19 23 23 21 19 18 18 19 18 18 18 19 19 18 20 20 18 17 16 14 14 16 16 15 15 13 13 14 14 13 11 10 8 7 6 6 6 6 6 5 6 7 7 6 6 4 3 3 2 1 1 3 3 3 6 11 10 7 7
9 11 14 13 16 21 22 24 24 16 8 9 5 5 13 14 8 4 14 26 24 28 28 24 25 23 21 17 14 16 18 20 21 19 18 21 21 17 18 22 23 21 19 18 19 19 19 19 19 20 19 18 20 22 19 17 16 16 15 16 17 16 15 14 13 13 13 12 11 10 8 5 4 3 3 5 6 6 6 7 7 6 6 5 4 3 2 1 1 1 2 4 7 10 9 7 7
14 16 15 16 18 21 21 22 21 17 7 6 2 2 10 14 6 2 14 28 28 30 30 27 25 23 21 19 18 17 17 20 22 20 20 22 21 19 18 20 21 20 17 18 18 18 20 20 20 21 19 19 20 21 19 18 17 17 17 16 16 15 13 12 13 13 12 12 11 10 8 6 6 5 5 5 6 6 7 8 7 7 7 7 5 4 3 2 2 2 3 5 7 9 8 7 7
19 18 14 14 17 19 21 20 18 15 7 4 5 5 10 9 5 7 11 26 32 30 29 28 25 25 23 21 21 19 18 21 22 21 21 23 23 21 21 21 21 20 17 18 19 20 22 21 21 22 20 19 20 19 18 18 17 18 17 15 15 13 12 12 12 12 10 10 9 8 7 7 7 6 7 8 8 8 8 9 8 8 8 8 7 6 5 5 3 3 3 5 7 8 8 7 8
20 16 11 10 11 12 15 13 15 14 4 8 9 6 9 6 6 13 17 19 28 30 30 29 27 27 25 23 23 21 19 21 21 20 21 22 22 20 21 23 22 19 17 18 21 22 23 22 23 24 22 20 21 19 17 16 17 17 15 15 14 13 12 11 10 9 8 7 7 7 7 8 8 8 9 9 10 10 10 10 10 9 9 9 8 7 8 6 5 4 4 5 6 7 7 8 9
15 10 6 7 7 6 8 7 12 13 6 13 11 4 7 6 9 18 20 21 21 28 28 29 30 29 28 26 25 23 21 21 20 19 20 20 21 20 20 23 21 19 19 22 23 22 21 22 25 26 24 23 22 19 17 17 17 17 16 15 14 12 11 10 9 8 7 6 6 7 7 8 8 8 9 10 10 11 11 11 11 11 11 10 8 8 9 7 6 6 5 6 6 7 8 9 9
6 6 4 4 5 4 6 6 9 9 8 18 12 3 8 6 11 21 21 24 20 28 28 29 31 30 29 28 25 25 22 20 19 18 19 20 22 22 21 22 21 19 21 23 24 22 22 23 24 26 25 23 21 19 18 17 17 19 17 16 14 12 10 10 9 9 7 7 7 7 7 8 9 9 10 11 11 11 11 11 11 12 12 11 10 9 9 8 8 7 6 6 7 6 8 9 9
3 5 5 4 5 5 7 8 8 8 9 17 12 3 7 6 11 21 23 27 20 25 28 27 31 31 30 29 27 26 22 20 19 18 20 20 22 23 21 21 20 18 20 23 25 26 26 24 23 25 24 21 20 20 19 18 18 18 17 15 13 11 11 10 9 9 8 7 6 6 7 7 7 7 8 10 11 10 10 11 11 12 12 10 10 9 9 10 9 7 7 7 8 7 7 9 9
3 4 4 4 5 4 6 8 11 13 9 12 11 5 5 5 12 22 24 27 19 23 29 29 31 31 32 31 29 28 24 23 22 20 22 22 22 22 21 21 20 18 20 23 25 28 29 26 23 23 22 21 21 20 19 18 18 17 15 13 12 10 10 10 8 9 8 7 7 6 6 5 5 5 4 6 8 8 9 9 9 11 11 9 9 9 10 10 9 7 7 7 7 8 8 8 8
4 4 5 5 6 5 5 6 9 15 11 10 12 8 6 5 12 22 24 27 20 23 29 31 30 31 33 31 29 30 28 28 27 25 25 24 22 22 20 20 20 20 22 24 25 27 29 27 25 23 23 22 21 20 18 17 17 15 12 12 12 11 11 10 9 9 8 8 7 6 5 4 4 3 3 4 4 5 6 7 8 9 9 8 8 8 9 10 9 7 6 6 7 7 8 8 8
5 6 5 5 7 8 8 7 8 13 12 11 11 10 10 8 10 18 21 23 21 21 28 32 31 32 34 32 31 31 30 30 29 27 27 27 24 23 22 21 21 22 24 26 26 27 27 27 27 25 23 23 22 20 19 18 17 15 13 14 14 13 13 11 10 9 8 7 7 6 6 4 4 3 2 2 2 3 4 6 8 9 8 8 8 8 8 8 7 7 7 7 7 7 7 7 7
9 10 7 6 7 8 11 12 12 12 10 12 13 10 12 13 11 14 18 18 15 16 24 30 31 32 32 32 32 32 32 31 29 27 27 26 26 24 22 20 20 23 26 27 27 27 27 25 27 26 23 22 22 22 20 19 19 17 16 16 15 14 14 12 9 7 6 5 6 6 5 4 4 3 2 1 1 2 4 5 6 7 7 7 8 7 7 6 7 7 7 8 8 8 8 7 6
11 10 8 8 7 6 10 13 14 13 8 13 14 11 13 16 12 12 18 18 14 14 20 26 29 30 29 29 29 31 32 29 28 28 26 26 27 24 22 21 20 23 27 29 28 27 27 24 25 26 25 23 23 22 20 20 22 21 18 17 16 15 14 12 10 8 6 6 6 6 5 4 4 4 3 2 2 3 4 5 5 6 6 7 7 7 7 7 8 8 8 8 8 8 8 6 5
11 8 7 8 7 6 10 12 13 12 6 10 13 10 11 14 12 12 15 14 9 11 17 22 28 29 30 30 29 30 29 28 28 27 26 25 25 24 23 22 22 24 26 28 28 27 27 26 25 25 25 23 23 22 21 21 22 21 19 18 16 15 14 13 12 10 7 6 7 6 5 5 4 4 4 3 3 3 4 4 5 6 7 7 7 8 7 8 8 9 8 8 8 8 8 6 6
9 6 6 6 7 7 10 14 16 10 5 8 14 11 8 10 12 12 10 9 9 14 20 28 32 29 30 31 30 31 28 29 28 26 27 24 22 24 23 21 22 25 25 25 26 26 26 28 26 25 25 23 23 23 23 23 22 20 19 18 17 16 14 12 10 9 6 6 6 6 6 6 5 4 3 2 2 2 3 3 4 6 7 7 7 8 8 8 9 9 9 9 9 9 9 7 7
8 6 5 6 8 7 5 11 14 7 3 7 11 7 4 6 9 9 8 10 15 21 25 35 39 34 34 35 34 33 30 30 29 27 25 18 16 16 16 22 24 21 20 23 25 26 26 28 27 26 26 25 25 26 25 24 24 22 20 19 16 15 13 10 8 8 7 7 6 6 7 7 5 3 3 2 2 2 3 4 3 3 5 5 6 8 8 9 9 9 10 11 11 11 11 10 9
7 8 6 6 9 8 6 8 10 7 3 4 8 3 4 4 5 6 7 7 11 18 19 25 34 35 35 35 32 32 30 28 27 23 19 16 17 16 16 23 23 16 18 23 26 28 29 28 28 29 27 26 26 26 26 25 25 23 21 19 16 15 13 9 9 10 9 8 7 8 8 7 5 3 2 1 0 2 3 4 4 2 3 4 5 6 8 9 9 9 10 11 11 11 11 10 9
4 6 7 7 11 11 9 11 9 6 6 3 7 4 5 5 3 5 6 4 6 11 11 15 27 32 32 32 28 28 26 22 22 22 21 19 17 12 13 16 14 15 20 23 25 28 30 30 30 30 28 26 26 25 25 25 25 23 21 19 17 16 14 10 10 11 11 8 7 9 10 10 9 6 4 3 3 2 4 5 6 4 2 3 4 5 7 8 8 8 8 9 10 10 10 10 10
3 4 5 7 11 11 10 10 6 2 4 4 3 4 3 5 4 6 5 6 7 9 9 12 23 30 29 30 29 28 24 21 22 19 18 20 18 12 12 13 15 19 21 22 25 27 30 32 31 30 28 27 27 26 25 24 23 22 21 19 16 15 14 12 12 11 10 9 8 9 10 10 11 9 7 6 5 3 3 6 7 6 5 2 1 4 6 6 6 7 7 7 8 9 9 9 10
3 4 6 10 10 11 9 6 6 3 3 4 1 5 2 3 5 7 6 6 5 6 10 11 18 25 27 28 27 25 22 22 22 21 20 19 17 16 19 21 22 22 20 22 25 27 31 32 31 30 29 29 28 27 25 23 23 22 21 20 16 14 13 13 13 11 11 10 7 8 7 7 9 8 7 6 4 3 4 5 5 5 5 3 1 2 4 5 6 8 7 6 7 8 9 9 10
4 4 8 11 11 12 9 5 5 2 0 4 3 4 3 3 5 7 8 6 4 5 10 11 15 23 27 26 23 21 21 21 23 26 26 21 17 19 25 25 22 20 19 21 23 26 31 32 30 30 30 30 29 27 25 24 24 23 21 19 17 16 14 12 12 12 11 10 8 7 6 6 6 6 5 5 4 5 6 8 8 5 4 4 3 2 2 5 7 8 7 8 8 7 8 9 10
5 7 9 10 9 10 7 6 4 2 2 5 4 2 3 3 6 4 5 5 6 6 6 9 15 23 28 25 23 23 23 24 23 25 25 22 20 22 24 22 22 24 24 22 23 26 30 31 29 29 31 32 31 29 27 26 26 24 20 17 17 17 15 13 13 12 11 10 10 9 7 6 6 7 7 7 7 6 6 9 11 8 4 5 5 2 4 6 6 7 7 8 8 7 7 8 9
7 7 8 7 8 7 5 5 3 4 3 5 3 1 3 2 6 2 0 5 7 5 8 9 14 21 24 24 27 25 25 25 22 22 24 24 24 22 21 23 29 31 30 28 28 30 32 33 31 30 32 34 33 30 28 28 28 23 19 17 17 17 15 14 14 13 12 12 11 9 8 8 8 8 9 9 9 8 7 8 10 11 8 6 5 4 5 5 4 5 5 7 8 8 8 8 9
6 5 5 4 5 4 3 3 3 3 4 5 4 4 4 4 5 3 1 5 3 8 14 10 11 15 18 23 28 26 25 25 21 22 26 28 26 20 20 29 33 34 33 33 32 33 35 35 34 33 34 34 32 31 30 29 28 23 19 18 18 17 15 15 15 14 14 13 11 10 8 6 6 7 8 10 9 7 7 7 9 11 11 8 6 5 5 5 6 6 6 7 8 8 8 9 9
6 5 4 3 3 3 2 3 4 3 4 5 7 6 5 4 4 2 3 8 7 10 16 17 16 16 19 25 30 30 28 25 24 25 26 26 24 20 26 34 35 36 36 32 31 33 35 35 35 34 33 33 31 29 30 28 26 22 18 17 17 17 16 15 16 15 15 13 11 9 7 5 6 6 5 7 7 6 7 8 8 9 10 9 8 6 4 5 7 7 6 7 7 7 8 8 8
7 6 4 4 2 1 2 3 2 3 4 5 7 7 5 2 1 4 6 8 10 12 16 24 27 24 26 29 33 33 29 27 28 27 25 25 26 28 33 37 37 37 35 31 29 30 30 30 30 31 32 32 29 28 28 26 24 20 17 17 17 16 15 15 16 16 15 12 10 8 8 7 7 6 4 4 6 8 9 8 9 8 9 10 9 6 4 4 7 7 6 7 8 8 8 9 9
4 5 5 4 4 3 3 2 3 3 3 3 5 4 3 2 2 4 7 9 16 19 17 23 28 27 30 31 30 30 28 27 27 27 27 28 30 32 36 39 38 34 31 31 29 26 26 26 26 27 29 29 29 27 27 25 23 21 19 18 17 16 15 15 16 16 13 11 10 9 9 9 8 8 6 4 7 11 11 9 8 6 9 12 11 8 6 5 6 7 7 9 11 12 12 13 13
2 2 3 3 4 4 3 2 4 4 1 2 1 1 1 3 2 2 9 11 16 19 17 20 24 26 29 29 26 25 25 23 22 24 28 30 30 32 34 36 36 32 29 31 30 28 29 28 26 26 25 26 27 27 27 26 23 21 21 19 18 17 16 15 17 17 14 12 12 12 12 11 10 9 7 5 7 12 13 11 7 6 12 15 12 10 8 6 7 9 11 12 13 15 16 18 18
2 1 3 6 6 6 2 2 1 3 3 2 0 1 3 2 1 2 8 11 11 13 13 15 17 22 25 25 25 24 23 22 21 22 23 24 25 28 29 30 30 30 29 30 29 30 31 29 27 25 23 23 26 27 27 26 24 23 23 20 20 18 16 16 18 19 16 14 14 14 13 12 11 9 7 6 7 11 13 11 7 9 14 15 12 10 8 8 10 12 12 13 14 16 18 20 20
2 2 4 5 3 4 3 1 2 3 2 3 2 5 1 2 0 4 6 10 9 9 10 13 17 19 20 21 23 22 21 22 22 21 20 19 20 23 25 27 28 28 30 30 30 30 30 27 24 22 21 21 24 25 25 24 23 24 24 21 19 18 16 17 19 19 17 15 14 14 12 11 10 8 7 6 8 11 11 9 8 11 14 15 12 10 8 10 12 13 12 12 13 15 18 21 20
7 4 3 3 3 2 1 2 1 0 1 2 2 3 2 2 1 5 5 5 7 9 9 11 15 18 20 21 22 20 19 19 18 17 17 18 19 22 25 27 28 28 28 28 28 28 27 26 23 22 22 21 22 23 24 23 22 23 23 20 19 19 18 18 19 18 17 15 13 12 11 10 8 6 6 7 8 8 9 9 9 10 11 13 13 11 9 10 12 12 12 11 12 16 19 20 19
6 4 2 3 3 3 1 2 3 3 2 1 3 3 1 1 3 4 3 1 6 9 9 9 11 16 20 21 21 19 18 16 15 16 19 17 18 22 26 27 27 27 27 25 25 23 23 23 23 24 24 23 23 24 25 24 23 23 22 21 21 21 20 20 19 17 16 14 11 10 10 9 7 6 8 8 7 7 8 9 9 9 9 11 12 12 10 10 12 13 12 11 12 16 20 20 18
5 3 2 1 1 2 2 2 1 3 3 3 2 1 3 3 3 3 5 4 4 8 10 8 11 17 20 20 21 20 20 18 18 19 21 19 21 23 26 26 25 26 25 24 22 20 20 21 22 23 24 26 26 26 26 26 25 24 23 23 23 22 21 20 19 17 15 12 10 10 9 8 6 7 9 8 7 7 7 7 8 8 9 11 12 12 11 11 12 12 11 11 12 15 18 18 17
2 3 4 3 3 3 2 1 2 1 3 4 5 2 3 4 2 1 5 4 4 8 11 9 12 17 19 21 22 23 24 24 22 21 21 21 23 25 26 26 27 26 25 24 23 21 21 21 21 22 24 26 27 27 27 26 24 24 24 24 24 23 22 20 18 17 15 12 10 9 9 7 7 8 9 8 7 6 6 8 8 8 9 11 12 14 15 13 13 14 13 14 14 16 18 17 17
Wind_Direction
162 149 143 134 124 117 122 157 201 247 189 266 250 237 243 226 242 266 266 272 282 294 61 78 75 79 83 91 94 71 46 36 71 82 127 141 156 173 172 157 158 159 157 152 145 142 138 137 136 138 141 143 146 148 152 153 152 151 149 147 141 137 134 129 124 117 113 110 109 106 103 103 105 109 108 109 108 107 109 110 112 112 120 133 143 134 112 111 113 112 107 102 93 89 94 98 100
146 135 139 132 117 119 300 190 188 265 167 262 248 227 249 237 241 249 259 267 268 51 70 69 75 88 90 88 81 65 51 52 82 97 117 139 149 151 155 153 152 153 158 154 145 141 137 136 136 138 140 142 146 149 154 155 153 152 151 148 143 138 134 130 126 119 113 114 115 113 110 108 109 113 114 114 113 113 114 115 117 116 126 142 151 144 120 111 116 120 114 110 101 93 96 100 103
144 139 139 134 63 203 296 270 200 241 172 240 245 232 258 260 249 253 264 261 110 85 74 64 62 77 82 76 67 74 82 74 93 108 118 146 150 135 144 148 146 155 158 153 144 140 136 136 137 137 140 142 146 151 155 156 155 153 153 150 145 138 133 132 129 124 120 120 120 118 114 112 114 117 120 122 122 123 123 124 126 124 128 135 142 142 127 118 121 127 123 122 110 99 99 103 105
154 147 140 160 261 224 273 234 204 220 206 236 250 248 244 241 248 255 306 58 72 71 70 73 56 60 77 79 83 85 94 102 113 120 124 157 158 138 145 147 145 156 157 151 144 140 137 135 135 136 137 142 146 150 153 155 155 155 154 150 145 138 135 137 134 129 126 124 122 119 118 116 117 119 124 128 129 131 132 134 136 133 134 133 135 138 135 127 129 140 134 133 120 104 103 105 106
161 153 146 181 242 254 250 227 211 197 227 238 265 275 256 245 228 141 60 53 75 54 49 85 85 64 73 69 79 81 98 109 120 136 136 147 150 144 148 147 148 157 155 148 143 139 135 133 131 132 135 139 143 147 149 153 155 155 155 150 144 141 141 142 138 133 129 125 121 121 123 122 122 122 124 129 134 137 139 142 143 142 150 146 140 143 144 139 141 151 144 142 129 110 108 107 107
152 155 174 221 255 289 304 249 239 233 237 235 262 272 272 276 89 96 57 55 80 61 53 87 107 87 74 69 67 67 118 113 121 146 149 143 144 150 147 145 155 156 152 144 142 137 131 129 128 129 133 136 139 143 148 151 152 153 152 148 145 145 145 142 138 132 128 123 123 124 124 124 125 125 124 129 133 136 138 140 141 142 147 136 131 135 139 147 156 159 149 147 135 117 115 112 111
144 164 203 216 254 268 269 250 259 261 247 239 242 254 261 261 216 116 61 38 45 68 101 102 104 96 88 99 70 63 119 133 132 146 155 147 148 149 141 152 157 152 147 142 138 135 129 127 127 128 131 134 138 143 147 148 150 151 149 147 147 149 145 141 136 132 130 126 125 124 123 123 125 126 126 129 129 129 128 124 121 112 110 109 109 116 130 149 161 162 152 152 143 126 123 118 115
153 240 240 194 256 221 226 257 259 260 262 258 253 262 263 227 185 137 110 122 71 69 121 114 106 91 90 112 81 73 111 144 137 143 150 144 147 139 133 149 153 148 142 141 137 134 130 127 127 127 131 135 140 144 146 147 148 149 148 149 150 150 145 141 139 135 134 129 124 121 122 123 123 126 126 128 128 124 120 116 111 101 96 92 90 96 109 127 142 157 159 159 154 141 135 125 119
181 243 264 225 225 250 251 253 253 257 261 263 265 272 274 209 109 63 34 53 108 122 143 131 120 111 100 99 93 96 109 132 131 136 139 132 138 130 134 141 141 142 143 144 140 136 130 129 130 129 134 137 141 144 147 148 149 150 150 153 152 150 147 145 143 139 135 129 124 122 125 124 124 127 126 128 128 124 120 116 111 103 97 90 85 85 86 87 105 144 160 166 166 159 148 134 124
203 227 249 281 213 251 254 252 252 252 254 259 261 256 244 113 81 51 8 4 11 317 110 117 115 114 108 95 98 110 117 131 131 132 132 128 134 132 140 142 126 131 147 149 143 138 134 133 133 133 136 136 139 143 147 149 150 152 152 154 152 150 149 148 144 139 135 129 126 125 125 124 127 129 129 129 130 127 122 117 110 100 95 90 85 84 82 72 75 106 146 168 174 171 160 144 130
215 219 226 282 248 248 244 253 252 255 257 254 261 247 177 125 112 89 55 312 300 313 99 105 106 108 102 93 103 120 131 136 134 135 136 134 135 138 148 149 130 129 145 151 147 142 138 136 135 135 136 137 140 143 146 148 149 151 152 153 151 152 150 148 144 139 136 131 126 125 124 123 128 131 131 133 133 130 125 121 110 92 83 84 83 83 84 67 58 69 105 157 176 177 171 157 139
232 223 203 234 234 235 242 254 256 263 265 253 267 248 157 129 112 113 128 283 338 315 93 123 130 117 101 98 116 128 133 135 141 140 142 139 134 139 153 155 143 139 142 149 150 145 140 137 137 137 139 141 144 145 146 148 151 152 152 153 151 152 150 150 147 141 137 132 127 126 125 123 127 128 130 134 133 130 127 125 110 87 75 77 82 81 75 57 47 54 78 132 171 183 183 173 153
236 251 196 229 232 234 250 258 265 271 282 268 259 167 132 126 130 152 154 98 56 325 316 141 141 126 104 115 128 134 131 142 151 146 144 144 142 142 153 156 153 148 141 148 151 148 143 140 140 141 144 147 147 147 150 152 154 154 154 154 153 153 151 152 148 141 137 130 127 126 125 124 126 124 126 132 131 130 129 127 111 92 85 79 77 74 56 40 44 57 82 114 158 187 194 190 172
230 246 233 258 255 254 255 256 268 272 285 282 251 126 112 100 122 109 92 59 338 119 118 138 141 125 117 124 136 138 135 153 155 149 148 146 151 152 157 158 154 146 140 149 153 150 147 144 145 147 151 151 150 151 156 158 158 158 157 155 154 153 152 151 146 139 134 128 130 131 127 125 125 125 128 134 135 137 133 126 108 98 96 86 80 83 70 60 65 74 102 133 146 180 197 200 189
228 244 247 264 268 270 264 260 267 271 265 258 304 104 95 65 116 67 59 41 67 116 125 135 137 123 145 148 150 145 142 155 152 149 151 147 154 159 162 157 148 142 143 152 154 154 151 150 152 154 156 152 154 158 160 161 160 160 159 157 155 152 151 150 146 142 137 137 139 134 129 126 127 130 134 141 142 139 132 114 97 96 99 96 98 103 100 97 94 90 98 144 153 162 188 197 195
227 242 256 259 268 271 264 267 273 273 263 250 314 96 107 65 176 112 78 313 54 97 107 113 121 129 150 146 142 147 148 153 153 151 150 152 156 153 154 150 144 142 149 156 158 159 156 157 160 161 158 155 160 163 163 162 161 162 159 157 154 153 152 150 149 145 140 138 133 125 127 131 132 136 137 139 134 124 115 96 84 92 106 110 114 116 118 116 108 104 98 109 154 151 160 181 185
228 232 246 266 264 262 265 264 270 268 285 317 18 29 53 76 150 138 138 202 77 80 77 78 99 113 128 134 138 148 152 152 154 157 155 156 153 148 150 150 147 145 153 161 163 161 160 166 168 167 163 160 166 168 166 163 162 162 158 156 155 155 152 152 151 144 139 132 124 124 131 135 135 139 133 123 117 113 106 91 84 104 128 130 133 129 122 117 114 117 115 119 145 152 152 158 164
231 213 224 248 250 254 260 253 271 298 17 347 17 26 15 42 76 118 154 143 99 91 86 86 90 102 118 129 138 149 154 150 151 161 160 156 154 151 151 152 152 149 157 163 162 160 164 174 174 172 167 165 173 173 170 166 164 162 158 157 155 153 153 154 151 144 140 132 128 132 138 137 130 124 112 104 115 137 125 126 151 167 167 158 154 142 126 128 127 131 134 139 146 150 152 150 152
233 202 222 230 242 253 261 269 289 298 328 352 34 67 5 360 54 89 134 134 102 98 97 93 92 103 116 126 140 152 154 149 154 164 163 161 162 158 154 155 156 154 159 163 157 157 170 180 180 177 173 173 180 177 174 171 166 163 159 156 152 155 158 155 149 144 140 133 132 137 140 134 115 105 106 143 231 215 188 186 186 186 187 174 165 160 156 151 142 144 134 126 135 142 143 147 152
232 222 236 239 242 254 262 267 276 283 301 20 44 131 163 6 21 111 77 59 85 104 117 104 103 110 116 126 144 151 150 153 159 163 163 167 167 163 160 159 161 159 162 162 152 158 175 184 185 183 180 181 185 181 178 173 167 165 158 154 155 161 162 152 146 142 140 137 140 144 140 130 123 142 182 215 229 226 206 194 192 192 191 183 177 168 159 153 146 148 134 120 119 121 122 123 131
223 217 222 251 255 266 262 262 274 293 325 43 75 126 73 12 340 355 79 74 69 113 127 121 124 124 127 135 146 151 152 159 163 160 157 162 166 164 163 163 166 163 163 162 153 159 176 186 189 187 185 185 186 183 181 173 169 166 160 159 162 163 158 150 146 143 141 144 153 157 149 140 149 174 194 205 213 221 207 205 213 201 184 180 171 159 147 137 134 140 138 132 120 113 114 106 101
232 233 226 240 251 267 268 277 293 314 354 25 38 23 349 4 339 327 5 159 139 135 132 133 136 136 142 145 149 155 160 165 166 163 161 163 165 162 161 166 169 165 162 162 157 159 174 185 190 187 182 183 186 183 183 175 167 167 167 165 161 160 157 151 150 148 147 157 164 158 153 153 164 183 192 197 206 216 215 230 242 225 199 188 168 152 147 133 130 136 142 146 135 121 118 105 83
237 258 239 238 239 250 269 280 290 308 355 21 8 336 337 3 330 318 338 145 141 137 136 139 142 144 150 150 152 160 164 167 167 170 172 170 168 164 165 169 168 164 161 159 159 163 173 182 187 187 180 180 185 182 182 174 164 170 173 162 156 164 163 155 157 158 159 169 167 147 151 162 172 185 188 196 205 210 226 249 260 246 233 223 200 170 161 145 142 156 150 156 159 143 128 106 79
233 249 248 249 247 252 267 269 270 277 312 20 353 320 321 335 274 323 68 129 135 135 134 137 143 150 153 151 159 165 163 164 168 172 175 174 171 170 171 168 164 164 159 156 159 164 172 178 183 187 182 180 181 178 176 170 166 174 174 160 162 173 171 163 163 165 167 172 168 157 163 170 178 190 190 196 203 208 234 246 248 245 245 246 232 210 189 168 153 175 165 160 169 153 131 112 115
240 242 244 251 256 259 268 272 274 264 210 138 324 285 287 285 291 331 117 135 135 135 137 140 147 153 154 152 160 166 164 164 170 174 174 172 169 170 170 163 164 168 161 158 160 163 169 171 177 184 184 179 177 176 173 173 174 174 171 165 169 178 177 173 170 170 174 176 174 176 183 179 175 183 189 200 211 220 235 235 238 240 240 244 242 232 203 176 148 171 174 170 161 151 138 134 146
249 248 246 243 250 257 266 273 278 274 205 168 180 211 262 280 313 345 144 142 139 140 144 150 154 153 153 155 161 166 166 169 174 176 173 169 165 165 168 165 169 174 166 163 164 164 163 166 176 183 183 178 175 177 175 177 176 167 167 169 173 178 177 176 174 174 177 178 178 182 194 203 197 191 200 214 221 231 234 233 237 236 237 240 246 251 226 222 225 192 196 183 160 151 149 149 153
262 262 257 245 244 252 259 262 270 281 257 181 190 222 250 257 274 284 158 148 146 148 147 152 156 152 156 160 161 163 165 173 177 176 171 168 165 162 165 170 173 175 170 166 167 167 164 166 175 179 181 177 176 180 175 170 169 164 166 169 173 176 172 172 176 179 178 177 179 185 199 217 230 233 234 230 227 236 234 234 240 238 243 246 250 259 259 266 261 233 214 196 177 158 154 159 165
276 281 279 259 250 251 253 256 269 282 272 213 241 254 257 246 214 246 204 159 153 154 149 151 155 152 160 163 162 166 167 174 178 178 175 171 170 165 166 176 176 173 170 167 168 165 161 163 169 172 176 175 175 179 173 166 166 166 167 167 167 166 167 172 178 181 177 173 182 192 202 215 227 228 231 235 236 239 235 235 243 245 249 253 257 264 267 269 258 234 213 202 194 173 164 178 182
275 283 289 280 274 260 245 245 266 273 229 202 225 239 258 247 206 236 232 190 164 157 152 152 156 157 161 164 166 168 167 173 178 181 182 177 176 173 172 182 180 172 166 165 166 162 160 162 164 168 172 174 173 176 174 167 166 166 164 164 164 164 168 173 175 177 173 174 187 194 202 212 217 219 227 238 242 241 237 241 251 254 258 259 260 265 266 264 253 236 214 201 196 183 177 191 192
265 272 277 281 295 281 246 235 257 263 207 205 214 215 248 241 231 233 234 229 187 159 158 155 156 159 162 167 170 168 167 173 176 180 184 179 180 182 181 182 178 170 163 162 164 164 167 165 162 166 170 172 170 168 168 165 165 164 164 168 171 170 168 166 168 172 175 180 190 193 200 211 216 226 236 242 247 245 241 246 254 258 263 265 263 266 259 252 250 238 216 199 195 192 185 191 196
270 276 282 268 271 278 266 244 243 254 207 202 199 188 243 234 232 232 233 240 205 162 164 158 154 157 161 170 171 167 169 171 175 179 179 179 184 186 185 182 176 173 168 165 167 169 173 168 163 164 166 168 165 160 158 159 161 162 166 172 169 164 160 159 164 169 174 182 194 200 205 218 227 238 242 243 246 246 242 244 253 256 260 263 262 261 249 239 242 235 216 200 198 203 194 192 193
264 247 270 258 242 256 270 254 237 248 214 200 199 205 238 228 234 232 226 240 222 170 169 159 153 157 161 169 168 166 170 170 175 178 173 180 190 187 188 187 178 177 177 173 172 170 169 169 166 165 164 166 163 158 155 154 158 162 165 164 155 150 154 157 162 166 170 178 189 197 204 219 231 240 243 246 247 244 243 243 247 250 251 254 256 253 238 231 235 228 212 199 201 207 201 197 192
267 225 240 248 247 246 251 245 236 247 234 200 201 208 229 221 244 242 229 234 221 163 165 164 157 157 161 166 165 167 170 170 175 178 174 181 191 190 191 191 183 182 184 181 177 169 165 167 166 164 165 166 163 158 153 152 155 158 158 150 142 143 150 152 154 159 161 161 164 174 187 204 214 224 238 249 248 241 243 243 243 246 245 243 242 241 231 227 230 222 209 198 199 204 200 201 194
273 251 233 241 246 246 249 243 228 237 238 210 202 205 224 216 235 245 236 226 204 155 161 167 159 156 160 162 162 168 172 173 177 179 178 183 192 195 192 190 185 184 183 182 179 171 165 162 160 163 164 163 161 156 151 152 152 148 145 140 135 133 136 140 142 142 145 150 155 161 171 186 197 202 219 244 247 237 238 241 239 240 240 232 226 229 227 224 223 217 215 206 200 205 204 200 192
239 245 233 236 236 237 248 252 237 229 222 212 205 200 220 237 239 247 242 226 206 172 164 163 158 156 160 163 164 171 175 176 179 179 181 183 190 195 192 190 188 187 184 179 175 169 164 159 158 161 163 160 156 154 152 153 152 143 138 139 136 129 128 131 128 122 125 143 150 152 156 160 174 181 181 214 230 219 229 236 234 236 238 232 228 224 218 217 215 211 213 208 208 212 210 204 194
234 245 236 227 229 232 238 243 247 242 216 205 208 191 205 227 236 250 255 249 234 195 160 149 155 157 161 166 168 174 178 178 180 180 181 181 187 192 191 192 192 190 184 171 165 163 161 160 159 158 159 157 153 153 153 153 154 148 140 139 135 130 125 120 116 114 115 129 136 139 142 139 154 168 148 168 192 179 205 223 223 230 235 233 231 222 206 205 206 204 201 203 215 218 211 213 206
248 256 260 257 252 245 242 240 239 239 218 203 203 184 195 214 224 240 250 261 259 205 157 141 150 155 160 166 169 176 179 179 179 178 178 180 186 192 193 194 188 184 179 166 159 159 158 162 162 155 154 156 154 155 153 154 156 149 141 139 139 138 130 122 126 141 141 131 132 133 139 146 149 149 144 164 179 170 193 215 215 215 222 225 222 215 207 208 206 201 197 201 213 216 210 207 195
259 263 276 278 278 272 265 266 252 235 218 203 194 181 196 205 214 232 239 256 256 181 150 143 152 156 162 166 170 178 180 178 178 175 176 180 186 190 189 186 178 173 169 158 154 154 154 161 163 155 153 155 158 160 154 152 150 144 143 146 146 143 138 137 145 154 155 149 147 144 146 151 143 130 129 141 152 160 182 208 221 219 223 224 211 206 208 210 210 206 206 207 207 210 211 202 189
257 263 276 277 279 288 284 285 274 248 210 193 186 186 205 201 209 223 219 221 202 168 153 153 158 160 165 169 173 180 179 176 178 176 176 177 175 177 173 164 160 158 151 143 149 154 154 161 166 160 156 156 161 164 158 152 149 145 147 148 144 142 144 150 156 163 174 178 171 157 144 135 128 117 103 97 119 139 147 173 213 221 221 222 213 211 213 210 210 210 212 213 208 208 208 204 200
243 237 257 267 264 275 281 289 285 267 194 165 168 179 226 209 209 226 221 198 187 183 170 161 166 169 168 172 177 180 177 174 176 172 168 156 134 138 147 152 153 147 144 144 151 161 162 163 167 164 160 160 162 162 158 154 150 148 147 144 140 141 145 154 166 174 181 186 178 157 146 138 129 128 121 83 86 117 126 132 163 203 206 211 214 215 213 211 213 214 212 208 208 211 209 207 202
242 226 224 250 263 266 273 300 318 335 356 107 114 83 314 252 207 244 255 216 188 191 178 156 164 169 166 172 178 178 179 178 169 150 132 117 108 102 117 144 148 141 155 159 157 165 166 162 165 164 162 163 162 159 158 154 151 150 148 145 144 146 151 163 167 161 160 172 168 145 143 143 136 154 183 196 154 161 155 131 121 144 181 187 193 193 191 197 204 209 208 203 208 210 205 207 203
267 239 218 237 267 277 289 309 335 357 330 356 84 79 302 291 239 265 276 245 206 189 171 139 150 159 162 167 171 174 175 163 145 131 117 117 123 116 113 126 134 146 161 162 159 165 165 162 163 163 162 164 162 160 159 156 153 155 152 147 149 154 164 170 157 147 149 162 160 145 149 150 149 166 191 222 251 209 167 154 135 112 118 167 174 165 165 176 182 185 189 197 210 208 202 207 204
261 257 246 250 262 271 279 297 314 340 278 278 92 120 257 309 293 267 254 232 228 181 153 128 141 154 160 163 166 168 157 133 131 133 125 130 137 134 125 126 137 145 149 152 156 162 163 163 164 163 164 164 163 162 161 160 159 160 155 150 154 162 167 158 144 144 151 158 161 156 158 157 159 172 187 211 245 236 161 155 145 122 105 101 148 153 151 160 166 166 171 185 205 207 205 207 201
226 247 275 273 268 262 255 263 271 250 235 251 149 125 170 295 284 272 260 238 239 166 140 126 140 153 158 161 165 161 143 132 132 117 109 129 143 135 129 134 139 137 136 144 154 162 165 166 166 167 168 168 167 165 163 165 166 163 156 153 160 164 161 151 148 157 165 173 175 163 164 163 169 186 191 191 202 183 160 152 153 152 142 134 147 161 159 168 170 166 165 175 198 206 205 205 200
232 222 250 263 268 266 250 231 249 249 175 269 257 128 126 275 270 282 288 270 248 183 154 145 144 149 155 158 156 148 137 134 127 113 110 120 129 136 132 129 135 139 143 153 163 169 169 168 168 170 173 173 171 168 165 166 166 160 154 154 160 160 160 163 169 175 181 188 178 159 160 161 170 184 172 169 170 162 168 168 173 188 180 167 173 181 199 200 183 171 173 180 188 194 194 199 199
224 220 240 257 268 274 260 225 220 119 175 249 258 144 120 280 273 283 314 291 241 210 159 146 143 147 156 149 131 133 134 129 124 121 123 123 127 141 138 134 144 147 146 155 168 175 173 171 172 174 177 177 174 171 168 168 165 160 157 161 164 159 165 181 185 183 186 183 165 151 160 176 196 196 173 177 184 174 174 170 175 183 154 143 164 197 230 225 196 175 182 183 180 182 188 195 193
216 215 235 258 268 275 269 228 164 108 217 239 240 174 141 244 279 255 145 282 246 176 115 127 141 145 151 134 119 129 133 128 129 128 128 129 129 132 135 148 159 156 152 154 165 174 175 175 176 176 179 179 175 172 171 171 166 162 164 170 171 164 168 184 183 180 180 173 159 157 178 195 205 202 190 193 191 185 186 171 174 182 168 156 172 188 210 219 192 170 179 174 172 181 187 187 183
219 214 211 236 281 304 308 258 158 140 245 227 194 204 173 191 270 260 164 334 328 129 124 130 139 136 136 124 119 127 128 126 133 133 131 132 130 131 148 162 165 165 163 159 164 173 176 178 179 179 179 178 176 173 173 172 167 165 170 176 178 172 171 179 176 172 173 168 158 163 185 199 203 206 205 207 207 198 190 182 175 181 187 186 177 174 184 188 177 173 176 166 166 177 179 181 181
215 221 191 194 286 348 322 241 190 191 240 209 187 205 211 207 252 273 48 29 50 125 139 140 137 126 116 117 122 125 124 128 135 136 136 138 138 149 165 169 170 170 167 161 163 173 179 183 182 180 180 179 176 175 174 173 168 168 177 186 185 176 173 174 171 170 170 164 158 163 181 198 213 225 207 198 206 183 168 179 177 175 184 178 160 162 175 175 180 184 174 161 162 166 162 163 167
201 201 170 174 203 43 280 252 209 211 224 209 201 209 228 258 342 68 61 49 77 107 130 134 134 125 110 113 125 126 124 130 137 137 139 145 150 159 167 171 173 172 170 166 165 173 182 186 184 182 182 179 177 176 175 175 172 173 186 197 190 178 174 173 172 174 168 161 162 169 186 200 211 218 204 184 179 160 157 177 184 178 172 160 149 154 162 162 178 184 168 155 155 151 146 150 150
193 176 151 162 165 163 232 226 180 217 250 245 225 215 196 190 217 106 85 62 76 90 107 119 122 120 113 115 124 125 122 131 141 142 146 153 157 164 169 172 175 175 174 171 166 169 178 183 186 188 187 182 179 179 180 180 178 181 191 196 189 180 178 177 178 177 169 165 172 178 189 203 210 210 218 216 173 163 170 188 196 180 157 151 145 143 149 148 156 163 154 147 147 143 142 144 140
267 165 148 196 187 173 222 206 170 174 56 336 250 243 235 171 228 111 98 75 69 82 91 103 117 123 120 120 127 127 121 128 142 146 150 155 159 165 169 170 175 177 172 169 167 168 174 179 183 188 192 189 184 183 185 185 182 185 192 190 185 182 179 180 179 175 172 172 175 181 192 207 218 217 225 232 187 174 182 192 198 168 149 151 152 151 156 149 139 143 142 140 142 143 143 139 133
300 235 195 222 188 145 156 273 286 103 97 297 127 84 331 36 339 344 90 84 65 68 71 80 103 120 124 126 131 131 121 120 135 141 143 147 153 162 167 167 172 171 166 166 168 171 175 180 184 186 190 194 193 192 191 189 183 185 191 186 181 183 181 180 178 174 177 179 177 187 200 210 218 222 230 228 191 180 186 190 183 156 148 151 156 162 168 161 145 140 140 140 141 145 145 140 137
147 258 214 214 161 108 109 155 340 40 110 263 135 126 51 55 296 320 51 75 71 68 66 61 66 85 105 116 122 125 120 121 129 131 131 138 146 155 162 167 169 166 166 167 169 172 175 181 187 186 188 196 200 199 197 193 186 186 188 182 181 186 182 180 179 177 181 183 182 192 205 210 211 221 228 209 178 175 181 176 154 144 147 154 161 164 164 163 155 148 147 145 143 147 149 147 147
173 212 178 125 110 75 35 144 177 196 198 295 41 103 80 66 310 325 9 67 86 76 68 64 60 69 87 102 111 116 119 125 128 128 136 144 146 151 158 164 167 168 170 172 171 172 174 179 184 182 185 194 200 200 198 196 193 190 186 181 184 187 182 183 186 185 185 184 185 193 201 204 204 207 198 176 163 159 154 146 136 136 146 157 162 160 158 164 162 158 159 157 151 152 154 153 153
204 212 108 92 137 147 145 175 170 168 191 322 9 351 1 356 316 347 356 20 99 92 74 68 67 69 80 98 113 116 118 125 128 138 155 148 132 144 156 159 163 167 172 173 171 171 174 178 180 179 180 187 197 199 196 196 196 194 189 184 186 187 185 190 193 190 185 181 184 192 197 197 191 173 160 156 154 148 142 140 139 140 145 152 157 159 159 160 162 165 168 167 162 159 157 155 155
226 200 160 147 124 117 138 205 186 140 154 154 128 276 273 272 304 17 41 17 56 92 88 77 74 75 80 96 114 124 124 129 137 149 160 145 120 132 150 154 158 162 166 167 167 171 176 180 184 186 185 186 192 197 198 198 199 198 194 189 189 190 190 194 197 193 186 180 184 190 189 187 171 153 151 152 144 139 138 136 139 143 146 149 153 153 147 146 151 157 156 153 157 161 160 156 155
267 189 201 180 135 118 121 289 302 79 124 161 152 165 276 270 270 33 64 44 26 67 84 80 73 79 83 90 108 124 126 128 135 140 148 143 127 129 140 147 155 160 159 160 166 175 180 184 188 190 190 190 194 198 198 198 199 201 200 196 195 195 194 195 197 195 188 183 186 187 183 178 159 147 147 139 125 126 127 126 128 131 141 150 149 141 141 144 141 138 136 139 143 145 147 149 148